Regional Weather Roundup
Issued by NWS San Angelo, TX

Home | Current Version | Previous Version | Text Only | Print | Product List | Glossary On
Versions: 1 2 3 4 5 6 7 8 9 10 11 12 13 14 15 16 17 18 19 20 21 22 23 24 25 26 27 28 29 30 31 32 33 34 35 36 37 38 39 40 41 42 43 44 45 46 47 48 49 50
000
ASUS44 KSJT 012202
RWRSJT
WEST CENTRAL TEXAS REGIONAL WEATHER ROUNDUP
NATIONAL WEATHER SERVICE SAN ANGELO TX
500 PM CDT MON SEP 01 2014

NOTE: "FAIR" INDICATES FEW OR NO CLOUDS BELOW 12,000 FEET WITH NO
SIGNIFICANT WEATHER AND/OR OBSTRUCTIONS TO VISIBILITY.

TXZ049-054-064>066-071>073-076>078-098-099-113-114-127-128-139-140-
154-155-168>170-012300
...LOCATIONS ACROSS WEST CENTRAL TEXAS...

CITY           SKY/WX    TMP DP  RH WIND       PRES   REMARKS
SAN ANGELO     SUNNY    100  61  27 S12       29.83F
ABILENE        SUNNY    100  60  26 S14G24    29.82F
DYESS AFB      SUNNY    100  62  29 S18       29.81F
JUNCTION       SUNNY     96  62  32 SE14G22   29.86F
SWEETWATER     SUNNY     99  60  27 SE17      29.86F
BROWNWOOD      MOSUNNY   99  61  28 S16G22    29.84F
COLEMAN        CLEAR     98  58  26 S13G22    29.85S
SONORA         SUNNY     95  63  34 S17       29.91F
OZONA          FAIR      97  59  28 S12       29.89F
BRADY          SUNNY     97  63  32 SE14      29.86F
$$

TEXAS PANHANDLE/OKLAHOMA PANHANDLE

CITY           SKY/WX    TMP DP  RH WIND       PRES   REMARKS
AMARILLO       SUNNY     93  56  28 E3        29.91F
BORGER         SUNNY     93  59  31 VRB3      29.88F
CANADIAN       SUNNY     87  67  50 NW8       29.84F
DALHART        SUNNY     87  54  32 E7        29.95F
DUMAS          CLEAR     90  61  37 CALM      29.92F
GUYMON         NOT AVBL
HEREFORD       CLEAR     96  52  22 N5        29.91F
PAMPA          CLEAR     87  60  39 E7        29.90F
PERRYTON       SUNNY     85  63  48 E5        29.89S
$$

SOUTHERN PANHANDLE/SOUTH PLAINS/ROLLING PLAINS

CITY           SKY/WX    TMP DP  RH WIND       PRES   REMARKS
LUBBOCK        MOSUNNY  104  48  15 SW14G22   29.85F
SNYDER         SUNNY    100  62  28 S6        29.83F
CHILDRESS      SUNNY     99  66  33 S12       29.78F
SEMINOLE       CLEAR    102  39  11 SW10G16   29.87F
$$

PERMIAN BASIN

CITY           SKY/WX    TMP DP  RH WIND       PRES   REMARKS
MIDLAND        MOSUNNY  101  53  20 VRB3      29.84F
ODESSA         SUNNY    103  42  12 SW14      29.86F
WINK           SUNNY    104  41  11 SW9       29.82F
$$

FAR WEST/SOUTHWEST MOUNTAINS/TRANS PECOS

CITY           SKY/WX    TMP DP  RH WIND       PRES   REMARKS
ALPINE         PTCLDY    97  41  14 SW3       30.04F
DRYDEN           N/A    104  60  23 E12G17    29.82F
EL PASO        MOSUNNY   98  38  12 W14G22    29.93F
FORT STOCKTON  MOSUNNY  102  47  15 SE13G20   29.86F
GUADALUPE PASS SUNNY     96  41  15 W22G29    30.08F
MARFA          MOSUNNY   93  45  18 S12       30.05F
PECOS          NOT AVBL
$$

DALLAS/FORT WORTH METROPLEX

CITY           SKY/WX    TMP DP  RH WIND       PRES   REMARKS
DFW AIRPORT    MOSUNNY   94  68  42 S17G24    29.83F
FTW MEACHAM    SUNNY     99  67  35 S18G25    29.82F
DAL-EXECUTIVE  PTSUNNY   97  67  37 SE15G22   29.85F
GRAND PRAIRIE  SUNNY     97  63  32 SE14G20   29.85F
ADDISON        NOT AVBL
MESQUITE       PTCLDY    93  64  38 SE12G20   29.87F
LANCASTER      MOCLDY    95  67  39 S10       29.87S
$$

NORTH CENTRAL TEXAS

CITY           SKY/WX    TMP DP  RH WIND       PRES   REMARKS
SHRMAN/DENISON PTCLDY    95  65  37 S14G23    29.86F
GAINESVILLE    MOSUNNY   92  71  50 SE18G24   29.86F
BRIDGEPORT     PTCLDY    96  62  31 S17       29.84S
DENTON         MOSUNNY   96  68  39 S18       29.83F
WAXAHACHIE     PTCLDY    95  64  36 SE9       29.87S
GRANBURY       NOT AVBL
$$

WESTERN NORTH TEXAS

CITY           SKY/WX    TMP DP  RH WIND       PRES   REMARKS
WICHITA FALLS  SUNNY    101  64  29 S23G29    29.76F
VERNON         CLEAR    103  61  25 S16G25    29.76F
BRECKENRIDGE   NOT AVBL
COMANCHE         N/A     97  61  30 S14G20    29.85F
$$

CENTRAL AND SOUTH CENTRAL TEXAS

CITY           SKY/WX    TMP DP  RH WIND       PRES   REMARKS
AUSTIN/BERGSTM MOSUNNY   98  67  36 SE13      29.84F
WACO           MOSUNNY   97  65  34 SE17G23   29.84F
HILLSBORO      PTCLDY    95  64  35 S16       29.86S
TEMPLE         PTSUNNY   97  64  34 SE16G25   29.85F
KILLEEN-GRAY   MOSUNNY   95  66  38 SE20      29.85F
FORT HOOD      MOSUNNY  100  64  30 SE15G23   29.85F
GEORGETOWN     PTSUNNY   95  66  38 S12G18    29.86F
LAGO VISTA     FAIR      94  62  34 SE10G17   29.89F
SAN MARCOS     MOSUNNY   97  64  34 SE16G22   29.86F
NEW BRAUNFELS  MOSUNNY   98  65  33 S18G28    29.83F
RANDOLPH AFB   PTSUNNY   96  65  35 S10       29.85F
SAN ANTONIO    MOSUNNY   96  65  35 S14       29.85F
STINSON        PTSUNNY   99  65  32 SE13      29.82F
PLEASANTON     NOT AVBL
LA GRANGE      MOSUNNY   95  73  48 SE13G18   29.86S
GIDDINGS       NOT AVBL
$$

EAST TEXAS

CITY           SKY/WX    TMP DP  RH WIND       PRES   REMARKS
PARIS          MOSUNNY   93  68  43 SE16      29.89F
CLARKSVILLE    NOT AVBL
TYLER          MOSUNNY   95  64  35 S12G20    29.89F
LONGVIEW       SUNNY     94  69  44 SE10      29.89F
PALESTINE      PTCLDY    94  68  42 SE9G16    29.90F
NACOGDOCHES    MOSUNNY   91  72  52 SE10      29.91S
$$

TEXAS HILL COUNTRY AND EDWARDS PLATEAU

CITY           SKY/WX    TMP DP  RH WIND       PRES   REMARKS
LLANO          CLEAR     99  63  30 S8        29.87F
HORSESHOE BAY  FAIR      96  61  31 S8G18     29.86F
KERRVILLE      MOSUNNY   92  64  39 S14G21    29.90S
FREDERICKSBRG  MOSUNNY   93  61  34 S15       29.89F
ROCKSPRINGS    NOT AVBL
HONDO          MOSUNNY   98  64  32 SE16      29.86F
UVALDE         CLEAR     99  63  30 S7G23     29.83F
DEL RIO        SUNNY    101  65  30 SE18G25   29.79F
$$

SOUTHEAST TEXAS

CITY           SKY/WX    TMP DP  RH WIND       PRES   REMARKS
COLLEGE STN    SUNNY     97  64  33 S15G22    29.86F
CALDWELL       NOT AVBL
CROCKETT       NOT AVBL
BRENHAM        SUNNY     96  68  39 SE12      29.87F
HUNTSVILLE     MOSUNNY   93  69  45 SE8G21    29.89F
CONROE         MOSUNNY   90  72  55 SE12      29.91F
HOUSTON BUSH   PTSUNNY   88  75  66 SE12      29.89F
HOUSTON HOBBY  MOSUNNY   90  73  57 S12       29.89F
PERLAND        SUNNY     91  72  53 SE10      29.91F
WHARTON        PTCLDY    91  72  55 S13       29.90S
$$

THE UPPER TEXAS COAST

CITY           SKY/WX    TMP DP  RH WIND       PRES   REMARKS
ORANGE         PTCLDY    88  75  64 S10       29.94F
PORT ARTHUR    PTSUNNY   87  75  67 S13G18    29.92F
GALVESTON      MOSUNNY   88  78  72 SE10      29.92F
ANGLETON       SUNNY     88  76  67 S12       29.90F
BAY CITY       PTCLDY    92  75  58 S9        29.90S
$$

TEXAS COASTAL BEND, RIO GRANDE PLAINS DEEP SOUTH TEXAS

CITY           SKY/WX    TMP DP  RH WIND       PRES   REMARKS
VICTORIA       MOSUNNY   95  73  48 SE18      29.88F
BEEVILLE       FAIR      95  70  43 SE17      29.86S
ROCKPORT       SUNNY     90  77  65 SE14      29.88F
PORT ARANSAS   PTCLDY    88  78  72 SE10      29.88S
PORT LAVACA    MOCLDY    89  76  66 E15       29.89F
CORPUS CHRISTI MOSUNNY   90  75  61 SE16      29.86F
KINGSVILLE NAS MOSUNNY   95  77  55 SE15G26   29.85F
COTULLA        MOSUNNY  101  62  27 SE15G24   29.81F
LAREDO         MOSUNNY  102  65  29 SE12      29.82F
BROWNSVILLE    MOSUNNY   92  75  57 SE17      29.85F
PORT ISABEL    SUNNY     91  76  61 SE16      29.85F
HEBBRONVILLE   NOT AVBL
MCALLEN        SUNNY     95  73  48 SE15G21   29.82F
WESLACO        NOT AVBL
FALFURRIAS     MOCLDY    94  70  45 E16       29.83F
EDINBURG       PTCLDY    99  67  34 SE15      29.81F
$$



USA.gov is the U.S. government's official web portal to all federal, state and local government web resources and services.